This is the latest recevied weather packets stored in our database for station/object N4RCT. If no packets are shown the sender has not sent any weather packets the latest 10 day(s).
| Time | Temp. | Humidity | Pressure | Rain* | Wind** | Luminosity | Snow |
|---|---|---|---|---|---|---|---|
| 1777586981 | 19.44° C | 65% | 1011.7 hPa | 0 mm | - | 96 W/m² | - |
| 1777586677 | 19.44° C | 58% | 1011.7 hPa | 0 mm | - | 99 W/m² | - |
| 1777586372 | 19.44° C | 62% | 1011.4 hPa | 0 mm | - | 102 W/m² | - |
| 1777586072 | 19.44° C | 59% | 1011.6 hPa | 0 mm | - | 114 W/m² | - |
| 1777585770 | 19.44° C | 56% | 1011.5 hPa | 0 mm | - | 101 W/m² | - |
| 1777585465 | 20° C | 58% | 1011.4 hPa | 0 mm | - | 118 W/m² | - |
| 1777585162 | 20° C | 57% | 1011.5 hPa | 0 mm | - | 118 W/m² | - |
| 1777584857 | 20° C | 62% | 1011.5 hPa | 0 mm | - | 136 W/m² | - |
| 1777584555 | 20° C | 61% | 1011.5 hPa | 0 mm | - | 133 W/m² | - |
| 1777584251 | 20° C | 65% | 1011.6 hPa | 0 mm | - | 165 W/m² | - |
| 1777583945 | 20° C | 58% | 1011.5 hPa | 0 mm | - | 159 W/m² | - |
| 1777583641 | 20° C | 58% | 1011.4 hPa | 0 mm | - | 153 W/m² | - |
| 1777583340 | 20° C | 63% | 1011.5 hPa | 0 mm | - | 179 W/m² | - |
| 1777583035 | 20° C | 59% | 1011.5 hPa | 0 mm | - | 187 W/m² | - |
| 1777582732 | 20° C | 63% | 1011.5 hPa | 0 mm | - | 201 W/m² | - |
| 1777582427 | 20° C | 60% | 1011.4 hPa | 0 mm | - | 182 W/m² | - |
| 1777582127 | 20° C | 62% | 1011.7 hPa | 0 mm | - | 176 W/m² | - |
| 1777581821 | 20° C | 57% | 1011.6 hPa | 0 mm | - | 229 W/m² | - |
| 1777581520 | 20° C | 57% | 1011.7 hPa | 0 mm | - | 278 W/m² | - |
| 1777581215 | 20.56° C | 62% | 1011.8 hPa | 0 mm | - | 193 W/m² | - |
| 1777580910 | 20° C | 57% | 1011.6 hPa | 0 mm | - | 222 W/m² | - |
| 1777580609 | 20° C | 64% | 1011.9 hPa | 0 mm | - | 219 W/m² | - |
| 1777580306 | 20° C | 58% | 1011.7 hPa | 0 mm | - | 242 W/m² | - |
| 1777580003 | 20° C | 60% | 1011.8 hPa | 0 mm | - | 226 W/m² | - |
| 1777579698 | 20° C | 59% | 1012 hPa | 0 mm | - | 222 W/m² | - |
* Rain latest hour (hover to see other rain measurements)
** Current wind speed in m/s (hover to see current wind gust speed)